Miami, FL

10:33 AM EST on November 12, 2019 (GMT -0500)
Miami International

Weather History for KMIA - September, 2019

Change the Weather History Date:

Saturday, September 21, 2019

  Actual Average Record
Temperature  
Mean Temperature 81 °F 83 °F  
Max Temperature 87 °F 89 °F 93 °F (1987)
Min Temperature 75 °F 76 °F 69 °F (1938)
Degree Days  
Heating Degree Days 0 0  
Month to date heating degree days 0 0  
Since 1 July heating degree days 0 0  
Cooling Degree Days 16 18  
Month to date cooling degree days 443 380  
Year to date cooling degree days 3921 3455  
Growing Degree Days 31 (Base 50)    
Moisture  
Dew Point 71 °F    
Average Humidity 73    
Maximum Humidity 87    
Minimum Humidity 59    
Precipitation  
Precipitation 0.62 in 0.34 in 6.52 in (1940)
Month to date precipitation 3.24 6.93  
Year to date precipitation 55.16 47.33  
Snow  
Snow 0.00 in - - ()
Month to date snowfall 0.0  
Since 1 July snowfall 0.0  
Since 1 September snowfall 0.0  
Snow Depth 0.00 in    
Sea Level Pressure  
Sea Level Pressure 30.04 in    
Wind  
Wind Speed 14 mph (ENE)    
Max Wind Speed 28 mph    
Max Gust Speed 35 mph    
Visibility 9 miles    
Events Rain , Thunderstorm    
T = Trace of Precipitation, MM = Missing Value Source: NWS Daily Summary

Daily Weather History Graph

Daily Weather History Graph

Search for Another Location

Airport or City:

Astronomy

Sep. 21, 2019 Rise Set
Actual Time 7:09 AM EDT 7:18 PM EDT
Civil Twilight 6:46 AM EDT 7:41 PM EDT
Nautical Twilight 6:19 AM EDT 8:08 PM EDT
Astronomical Twilight 5:52 AM EDT 8:35 PM EDT
Moon No Moon Rise 1:37 PM EDT (9/21)
Length of Visible Light 12h 55m
Length of Day
12h 09m
Waning Gibbous, 55% of the Moon is Illuminated
Sep 21
Waning Gibbous
Sep 21
Last Quarter
Sep 28
New
Oct 5
First Quarter
Oct 13
Full

Hourly Weather History & Observations

Time (EDT) Temp. Heat Index Dew Point Humidity Pressure Visibility Wind Dir Wind Speed Gust Speed Precip Events Conditions
12:53 AM 82.0 °F 84.9 °F 68.0 °F 62% 30.04 in 10.0 mi ENE 16.1 mph 26.5 mph N/A   Mostly Cloudy
1:53 AM 82.0 °F 84.9 °F 68.0 °F 62% 30.03 in 10.0 mi ENE 18.4 mph 26.5 mph N/A   Mostly Cloudy
2:53 AM 82.0 °F 85.5 °F 69.1 °F 65% 30.02 in 10.0 mi ENE 15.0 mph 25.3 mph N/A   Mostly Cloudy
3:53 AM 82.0 °F 85.9 °F 70.0 °F 67% 30.01 in 10.0 mi ENE 13.8 mph 18.4 mph N/A   Mostly Cloudy
4:53 AM 82.0 °F 85.9 °F 70.0 °F 67% 30.01 in 10.0 mi ENE 15.0 mph 21.9 mph N/A   Mostly Cloudy
5:53 AM 81.0 °F 84.9 °F 71.1 °F 72% 30.02 in 10.0 mi NE 11.5 mph 19.6 mph N/A   Mostly Cloudy
6:53 AM 81.0 °F 85.2 °F 72.0 °F 74% 30.03 in 8.0 mi NE 10.4 mph - N/A   Mostly Cloudy
7:53 AM 82.0 °F 86.7 °F 72.0 °F 71% 30.04 in 10.0 mi NE 13.8 mph 20.7 mph N/A   Mostly Cloudy
8:38 AM 80.1 °F 84.2 °F 73.0 °F 79% 30.06 in 5.0 mi East 10.4 mph 24.2 mph 0.06 in Rain Light Rain
8:53 AM 81.0 °F 85.8 °F 73.0 °F 77% 30.06 in 9.0 mi ENE 13.8 mph 24.2 mph 0.06 in Rain Light Rain
9:53 AM 81.0 °F 85.8 °F 73.0 °F 77% 30.07 in 10.0 mi NE 8.1 mph - 0.00 in   Overcast
10:50 AM 84.2 °F 89.6 °F 71.6 °F 66% 30.08 in 10.0 mi NE 17.3 mph 24.2 mph 0.00 in   Mostly Cloudy
10:53 AM 84.0 °F 89.6 °F 72.0 °F 67% 30.08 in 10.0 mi NE 18.4 mph 25.3 mph 0.00 in   Mostly Cloudy
11:53 AM 87.1 °F 93.6 °F 72.0 °F 61% 30.06 in 10.0 mi NE 18.4 mph 24.2 mph N/A   Mostly Cloudy
12:53 PM 86.0 °F 91.5 °F 71.1 °F 61% 30.05 in 10.0 mi NE 18.4 mph 28.8 mph N/A   Mostly Cloudy
1:37 PM 84.0 °F 89.0 °F 71.1 °F 65% 30.05 in 10.0 mi ENE 16.1 mph 32.2 mph N/A   Overcast
1:53 PM 80.1 °F 84.5 °F 73.9 °F 81% 30.04 in 7.0 mi NE 11.5 mph 27.6 mph 0.04 in Rain Light Rain
2:53 PM 82.0 °F 87.4 °F 73.0 °F 74% 30.04 in 7.0 mi NE 16.1 mph 24.2 mph 0.00 in Rain Light Rain
3:25 PM 82.9 °F 88.0 °F 72.0 °F 69% 30.02 in 10.0 mi ENE 17.3 mph 27.6 mph 0.00 in   Overcast
3:53 PM 84.0 °F 89.0 °F 71.1 °F 65% 30.02 in 10.0 mi NE 21.9 mph 28.8 mph 0.00 in   Overcast
4:53 PM 82.9 °F 88.0 °F 72.0 °F 69% 30.01 in 10.0 mi NE 15.0 mph 28.8 mph 0.00 in Rain Light Rain
5:09 PM 77.0 °F - 72.0 °F 84% 30.03 in 4.0 mi East 27.6 mph 33.4 mph 0.03 in Rain , Thunderstorm Rain
5:13 PM 75.9 °F - 72.0 °F 87% 30.03 in 2.0 mi East 20.7 mph 33.4 mph 0.17 in Rain , Thunderstorm Heavy Rain
5:29 PM 75.0 °F - 71.1 °F 87% 30.02 in 4.0 mi ESE 12.7 mph - 0.44 in Rain , Thunderstorm Light Rain
5:53 PM 75.9 °F - 72.0 °F 87% 30.03 in 6.0 mi East 6.9 mph - 0.52 in Rain , Thunderstorm Light Rain
6:09 PM 78.1 °F - 73.0 °F 84% 30.02 in 10.0 mi East 6.9 mph - 0.00 in   Overcast
6:53 PM 81.0 °F 85.2 °F 72.0 °F 74% 30.02 in 10.0 mi NE 12.7 mph 23.0 mph 0.00 in   Overcast
7:53 PM 82.0 °F 86.3 °F 71.1 °F 69% 30.01 in 10.0 mi NE 12.7 mph 23.0 mph N/A   Overcast
8:53 PM 82.0 °F 86.3 °F 71.1 °F 69% 30.03 in 10.0 mi NE 11.5 mph 26.5 mph N/A   Mostly Cloudy
9:53 PM 82.0 °F 86.3 °F 71.1 °F 69% 30.04 in 10.0 mi NE 16.1 mph 27.6 mph 0.00 in   Overcast
10:53 PM 82.0 °F 86.7 °F 72.0 °F 71% 30.05 in 10.0 mi ENE 12.7 mph 29.9 mph N/A   Mostly Cloudy
11:53 PM 81.0 °F 84.9 °F 71.1 °F 72% 30.04 in 8.0 mi NE 15.0 mph 26.5 mph 0.00 in Rain Light Rain